Location: Kershaw
(34.5481°N, 80.5823°W)
Time: 10:56:54
(UTC+00:00)

Altair - Pass Details

Date: 05 October 2022
Orbit: 1501 x 1682 km, 47.2° (Epoch: 30 November)

Event Time Altitude Azimuth Distance (km) Brightness Sun altitude
Rises 13:44:56 0° 297° (WNW) 4,858 9.6 27.6°
Reaches altitude 10° 13:48:17 10° 304° (NW) 3,892 9.2 28.2°
Maximum altitude 13:57:48 45° 15° (NNE) 2,155 8.5 29.9°
Drops below altitude 10° 14:07:26 10° 87° (E) 3,942 10.6 31.6°
Sets 14:10:50 0° 93° (E) 4,925 11.0 32.2°
